DW4174 Weather Reports


Display with metric or nautical units.
time (UTC)temp
F
wind
direction
speed
MPH
gust
MPH
rain 1hr
in
rain 24hr
in
rain mn
in
humidity
%
barometer
mb
20260902100722 86 113 1.0 3.0 0.00 0.00 0.00 57 1011.7
20260902095822 86 118 0.0 3.0 0.00 0.00 0.00 58 1011.6
20260902094922 86 0 0.0 0.0 0.00 0.00 0.00 57 1011.6
20260902094022 86 0 0.0 0.0 0.00 0.00 0.00 57 1011.6
20260902093122 86 0 0.0 0.0 0.00 0.00 0.00 57 1011.6
20260902092222 86 0 0.0 0.0 0.00 0.00 0.00 56 1011.5
20260902091322 86 175 0.0 1.0 0.00 0.00 0.00 56 1011.7
20260902090422 87 176 0.0 1.0 0.00 0.00 0.00 54 1011.7
20260902085522 87 0 0.0 0.0 0.00 0.00 0.00 53 1011.6
20260902084622 88 176 0.0 2.0 0.00 0.00 0.00 52 1011.8
20260902083722 88 176 0.0 1.0 0.00 0.00 0.00 50 1011.7
20260902082822 88 176 0.0 1.0 0.00 0.00 0.00 50 1011.6
20260902081922 88 0 0.0 0.0 0.00 0.00 0.00 49 1011.7
20260902081022 89 176 0.0 1.0 0.00 0.00 0.00 48 1011.7
20260902075222 89 0 0.0 0.0 0.00 0.00 0.00 48 1011.6
20260902074322 89 292 1.0 2.0 0.00 0.00 0.00 48 1011.6
20260902072522 90 267 1.0 4.0 0.00 0.00 0.00 47 1011.4
20260902071622 91 177 1.0 4.0 0.00 0.00 0.00 46 1011.4
20260902070722 91 148 1.0 6.0 0.00 0.00 0.00 45 1011.2
20260902065822 91 142 1.0 4.0 0.00 0.00 0.00 45 1011.2
20260902064922 91 162 1.0 5.0 0.00 0.00 0.00 45 1011.1
20260902064022 91 164 0.0 4.0 0.00 0.00 0.00 45 1011.1
20260902062222 91 166 1.0 5.0 0.00 0.00 0.00 45 1011.1
20260902061322 91 166 1.0 4.0 0.00 0.00 0.00 45 1011.1
20260902055522 92 168 1.0 5.0 0.00 0.00 0.00 44 1011.2
20260902052822 92 174 2.0 6.0 0.00 0.00 0.00 42 1011.4
20260902051922 93 188 1.0 6.0 0.00 0.00 0.00 41 1011.4
20260902050122 91 0 0.0 0.0 0.00 0.00 0.00 41 1011.1
20260902045222 92 0 0.0 0.0 0.00 0.00 0.00 41 1011.1
20260902044322 91 0 0.0 0.0 0.00 0.00 0.00 42 1011.0
20260902043422 91 0 0.0 0.0 0.00 0.00 0.00 41 1010.9
20260902042522 91 0 0.0 0.0 0.00 0.00 0.00 41 1010.8
20260902041622 92 0 0.0 0.0 0.00 0.00 0.00 40 1010.8
20260902040722 92 0 0.0 0.0 0.00 0.00 0.00 40 1010.8
20260902035822 92 0 0.0 0.0 0.00 0.00 0.00 40 1010.7
20260902034922 92 0 0.0 0.0 0.00 0.00 0.00 39 1010.6
20260902034022 93 0 0.0 0.0 0.00 0.00 0.00 39 1010.4
20260902033122 94 0 0.0 0.0 0.00 0.00 0.00 38 1010.3
20260902032222 93 0 0.0 0.0 0.00 0.00 0.00 38 1010.1
20260902031322 94 0 0.0 0.0 0.00 0.00 0.00 38 1009.9
20260902030422 94 0 0.0 0.0 0.00 0.00 0.00 38 1009.7
20260902025522 94 0 0.0 0.0 0.00 0.00 0.00 37 1009.6
20260902024622 94 178 0.0 2.0 0.00 0.00 0.00 38 1009.5
20260902021922 95 178 1.0 2.0 0.00 0.00 0.00 37 1009.4
20260902021022 95 178 0.0 4.0 0.00 0.00 0.00 36 1009.4
20260902020122 95 178 0.0 2.0 0.00 0.00 0.00 36 1009.3
20260902015222 96 178 1.0 4.0 0.00 0.00 0.00 36 1009.1
20260902014322 96 178 0.0 4.0 0.00 0.00 0.00 36 1009.1
20260902013422 96 178 0.0 2.0 0.00 0.00 0.00 36 1009.1
20260902012522 96 178 2.0 4.0 0.00 0.00 0.00 35 1009.1
20260902010722 97 157 2.0 5.0 0.00 0.00 0.00 34 1009.3
20260902005822 98 31 1.0 6.0 0.00 0.00 0.00 35 1009.5
20260902004922 98 287 1.0 4.0 0.00 0.00 0.00 34 1009.4
20260902004022 98 214 2.0 7.0 0.00 0.00 0.00 34 1009.6
20260902003121 99 239 3.0 5.0 0.00 0.00 0.00 34 1009.6
20260902002222 98 201 3.0 7.0 0.00 0.00 0.00 34 1009.8
20260902000422 99 227 3.0 9.0 0.00 0.00 0.00 34 1009.8
20260901235522 100 232 2.0 7.0 0.00 0.00 0.00 35 1009.9
20260901234622 100 159 2.0 7.0 0.00 0.00 0.00 35 1009.8
20260901232821 99 196 2.0 10.0 0.00 0.00 0.00 35 1010.1
20260901231921 99 190 3.0 8.0 0.00 0.00 0.00 36 1010.1
20260901231021 99 178 4.0 10.0 0.00 0.00 0.00 35 1010.2
20260901224322 100 154 4.0 8.0 0.00 0.00 0.00 36 1010.5
20260901223421 100 169 5.0 13.0 0.00 0.00 0.00 34 1010.4
20260901222521 100 156 4.0 10.0 0.00 0.00 0.00 36 1010.5
20260901221621 100 223 4.0 12.0 0.00 0.00 0.00 36 1010.7
20260901215821 101 271 3.0 9.0 0.00 0.00 0.00 36 1010.9
20260901214921 100 247 2.0 6.0 0.00 0.00 0.00 38 1011.0
20260901214021 101 191 2.0 7.0 0.00 0.00 0.00 38 1011.1
20260901212221 99 214 3.0 8.0 0.00 0.00 0.00 36 1011.5
20260901210421 99 210 3.0 9.0 0.00 0.00 0.00 38 1011.9
20260901205521 98 205 1.0 7.0 0.00 0.00 0.00 39 1012.0
20260901204621 97 238 2.0 6.0 0.00 0.00 0.00 41 1012.1
20260901203721 97 164 3.0 10.0 0.00 0.00 0.00 41 1012.2
20260901202821 98 175 4.0 10.0 0.00 0.00 0.00 40 1012.3
20260901201921 99 272 5.0 12.0 0.00 0.00 0.00 39 1012.5
20260901201021 98 269 3.0 10.0 0.00 0.00 0.00 41 1012.6
20260901200121 97 258 2.0 9.0 0.00 0.00 0.00 42 1012.7
20260901195221 97 217 2.0 8.0 0.00 0.00 0.00 42 1012.8
20260901194321 96 242 3.0 7.0 0.00 0.00 0.00 43 1012.9
20260901193421 96 190 3.0 6.0 0.00 0.00 0.00 43 1013.0
20260901192521 95 179 3.0 9.0 0.00 0.00 0.00 44 1013.1
20260901191621 96 148 2.0 7.0 0.00 0.00 0.00 45 1013.3
20260901190721 95 37 3.0 5.0 0.00 0.00 0.00 45 1013.4
20260901185821 94 157 3.0 9.0 0.00 0.00 0.00 44 1013.7
20260901184921 94 177 2.0 7.0 0.00 0.00 0.00 46 1013.8
20260901184021 94 236 3.0 7.0 0.00 0.00 0.00 46 1013.9
20260901183121 93 183 3.0 8.0 0.00 0.00 0.00 47 1014.1
20260901182221 92 191 3.0 11.0 0.00 0.00 0.00 46 1014.1
20260901181321 93 222 2.0 8.0 0.00 0.00 0.00 49 1014.2
20260901180421 92 103 4.0 8.0 0.00 0.00 0.00 49 1014.2
20260901175521 91 144 3.0 10.0 0.00 0.00 0.00 50 1014.3
20260901174621 92 210 4.0 8.0 0.00 0.00 0.00 50 1014.3
20260901172821 90 168 3.0 9.0 0.00 0.00 0.00 51 1014.5
20260901171921 90 179 2.0 8.0 0.00 0.00 0.00 51 1014.5
20260901170121 89 168 3.0 9.0 0.00 0.00 0.00 52 1014.4
20260901165221 89 202 2.0 9.0 0.00 0.00 0.00 53 1014.3
20260901164321 88 174 2.0 6.0 0.00 0.00 0.00 54 1014.3
20260901163421 87 191 2.0 5.0 0.00 0.00 0.00 55 1014.3
20260901161621 87 174 3.0 7.0 0.00 0.00 0.00 55 1014.2
20260901160721 86 145 2.0 8.0 0.00 0.01 0.00 55 1014.2
20260901155821 86 162 3.0 8.0 0.00 0.02 0.00 55 1014.1
20260901154021 85 129 3.0 7.0 0.00 0.06 0.00 56 1014.0
20260901151321 83 103 2.0 7.0 0.00 0.11 0.00 61 1013.8
20260901150421 83 89 1.0 3.0 0.00 0.11 0.00 61 1013.9
20260901145521 82 87 2.0 4.0 0.00 0.11 0.00 63 1013.9
20260901144621 82 79 2.0 5.0 0.00 0.11 0.00 64 1013.9
20260901143721 81 68 2.0 4.0 0.00 0.11 0.00 65 1013.8
20260901141921 80 83 2.0 4.0 0.00 0.12 0.00 68 1013.8
20260901135221 78 0 0.0 0.0 0.00 0.12 0.00 70 1013.8
20260901134321 78 0 0.0 0.0 0.00 0.12 0.00 70 1013.6
20260901133421 78 0 0.0 0.0 0.00 0.12 0.00 71 1013.4
20260901131621 77 70 2.0 4.0 0.00 0.12 0.00 71 1013.0
20260901130721 77 73 2.0 5.0 0.00 0.12 0.00 71 1013.0
20260901125821 77 69 2.0 5.0 0.00 0.12 0.00 70 1013.1
20260901124920 78 75 2.0 4.0 0.00 0.12 0.00 70 1013.2
20260901124021 78 73 1.0 4.0 0.00 0.12 0.00 70 1013.1
20260901122221 78 68 1.0 4.0 0.00 0.12 0.00 69 1013.0
20260901121321 78 66 1.0 4.0 0.00 0.12 0.00 69 1012.9
20260901120420 78 64 1.0 4.0 0.00 0.12 0.00 69 1012.7
20260901115520 78 64 1.0 3.0 0.00 0.12 0.00 69 1012.6
20260901114620 78 59 1.0 4.0 0.00 0.12 0.00 68 1012.6
20260901113720 78 56 0.0 2.0 0.00 0.12 0.00 69 1012.6
20260901112821 78 0 0.0 0.0 0.00 0.12 0.00 70 1012.5
20260901111921 78 0 0.0 0.0 0.00 0.12 0.00 70 1012.5
20260901105220 78 127 1.0 3.0 0.00 0.12 0.00 69 1012.4
20260901104321 78 126 1.0 2.0 0.00 0.12 0.00 68 1012.5
20260901103421 78 126 1.0 3.0 0.00 0.12 0.00 68 1012.6
20260901102520 78 127 0.0 3.0 0.00 0.12 0.00 68 1012.6
20260901101620 78 0 0.0 0.0 0.00 0.12 0.00 69 1012.6